www.pogodaiklimat.ru

Погода и климат >> Архив погоды >> Австралия >> Wyndham Aero


ПОГОДА в Wyndham Aero

  • Прогноз погоды в Wyndham Aero
  • Монитор погоды в Wyndham Aero
  • Климат города

АРХИВ ПОГОДЫ в Wyndham Aero

Время (UTC), дата Ветер
(напр.,м/с)
 
Видим.   Явления Облачность Т
(С)
Тd
(С)
f
(%)
Тe
(С)
Тes
(С)
Комфортность P
(гПа)
Po
(гПа)
Тmin
(С)
Tmax
(С)
R
(мм)
R24
(мм)
S
(см)
22 10.11 В 3 н/о н/о +29.6 +24.2 73 +41 +41 опасность
перегрева
1009.0 1008.5
23 10.11 ЮВ 3 н/о н/о +32.1 +22.8 58 +42 +42 опасность
перегрева
1009.5 1009.0
00 11.11 ЮВ 2 н/о н/о +33.9 +21.0 47 +41 +41 опасность
перегрева
1009.6 1009.1
02 11.11 СВ 5 н/о н/о +37.7 +13.7 24 +38 +38 очень
жарко
1008.4 1007.9
01 11.11 В 4 н/о н/о +36.3 +17.0 32 +39 +39 очень
душно
1009.3 1008.8 +26.8
03 11.11 В 3 н/о н/о +39.4 +11.5 19 +39 +39 очень
жарко
1007.4 1006.9
04 11.11 В 3 н/о н/о +39.7 +9.2 16 +38 +38 очень
жарко
1006.4 1005.9
05 11.11 В 5 н/о н/о +40.8 +9.1 15 +39 +39 очень
жарко
1005.4 1004.9
06 11.11 С 8 н/о н/о +40.2 +17.0 26 +43 +43 опасность
перегрева
1005.0 1004.5
08 11.11 С 8 н/о н/о +37.0 +15.5 28 +39 +39 очень
душно
1004.9 1004.4
07 11.11 С 6 н/о н/о +39.2 +14.3 23 +40 +40 очень
душно
1004.7 1004.2
09 11.11 С 7 н/о н/о +36.1 +20.6 41 +35 +35 очень
жарко
1005.4 1004.9
10 11.11 С 6 н/о н/о +34.6 +12.9 27 +35 +35 очень
жарко
1006.0 1005.5
11 11.11 С 7 н/о н/о +32.4 +18.6 44 +37 +37 очень
душно
1006.8 1006.3
12 11.11 С 8 н/о н/о +31.0 +22.6 61 +41 +41 опасность
перегрева
1007.4 1006.9
14 11.11 В 3 н/о н/о +29.7 +23.6 70 +41 +41 опасность
перегрева
1008.3 1007.8
13 11.11 Ю 2 н/о н/о +30.3 +24.2 70 +42 +42 опасность
перегрева
1008.4 1007.9 +42.0
15 11.11 штиль 0 н/о н/о +29.3 +23.5 71 +40 +40 очень
душно
1008.0 1007.5
16 11.11 СВ 1 н/о н/о +28.5 +23.0 72 +38 +38 очень
душно
1007.5 1007.0
17 11.11 В 3 н/о н/о +27.9 +23.7 78 +38 +38 очень
душно
1007.1 1006.6
18 11.11 В 3 н/о н/о +27.5 +23.7 80 +38 +38 очень
душно
1007.1 1006.6
20 11.11 ЮВ 4 н/о н/о +27.3 +24.4 84 +38 +38 очень
душно
1008.0 1007.5
19 11.11 В 4 н/о н/о +27.6 +24.2 82 +39 +39 очень
душно
1007.4 1006.9
21 11.11 В 3 н/о н/о +27.0 +24.3 85 +38 +38 очень
душно
1008.7 1008.2
22 11.11 В 4 н/о н/о +28.4 +24.8 81 +41 +41 опасность
перегрева
1009.4 1008.9
23 11.11 ЮВ 3 н/о н/о +31.0 +24.4 68 +43 +43 опасность
перегрева
1009.9 1009.4
00 12.11 З 2 н/о н/о +32.7 +22.5 55 +42 +42 опасность
перегрева
1009.9 1009.4
02 12.11 СЗ 3 н/о н/о +36.2 +19.2 37 +41 +41 опасность
перегрева
1008.7 1008.2
01 12.11 СЗ 3 н/о н/о +34.4 +21.1 46 +42 +42 опасность
перегрева
1009.6 1009.1 +27.0
03 12.11 З 3 н/о н/о +38.3 +15.4 26 +40 +40 очень
душно
1007.7 1007.2
04 12.11 ЮЗ 3 н/о н/о +39.3 +12.9 21 +39 +39 очень
жарко
1006.5 1006.0
05 12.11 С 4 н/о н/о +39.9 +13.4 21 +40 +40 очень
душно
1005.4 1004.9
06 12.11 СЗ 4 н/о н/о +40.8 +12.6 19 +40 +40 очень
жарко
1004.4 1003.9
08 12.11 С 8 н/о н/о +36.3 +19.3 37 +41 +41 опасность
перегрева
1003.8 1003.3
07 12.11 С 6 н/о н/о +40.2 +19.3 30 +45 +45 опасность
перегрева
1003.7 1003.2
09 12.11 С 9 н/о н/о +33.7 +20.5 46 +40 +40 очень
душно
1004.3 1003.8
10 12.11 С 9 н/о н/о +32.2 +20.8 51 +39 +39 очень
душно
1004.8 1004.3
11 12.11 С 7 н/о н/о +31.7 +22.7 59 +41 +41 опасность
перегрева
1005.8 1005.3
12 12.11 ЮВ 2 н/о н/о +31.1 +23.2 63 +42 +42 опасность
перегрева
1007.1 1006.6
14 12.11 В 3 н/о н/о +29.9 +22.3 64 +39 +39 очень
душно
1007.4 1006.9
13 12.11 СВ 4 н/о н/о +30.5 +22.4 62 +40 +40 очень
душно
1007.2 1006.7 +41.9
15 12.11 ЮВ 2 н/о н/о +29.4 +22.4 66 +38 +38 очень
душно
1006.9 1006.4
16 12.11 В 3 н/о н/о +28.9 +22.4 68 +38 +38 очень
душно
1006.3 1005.8
17 12.11 В 3 н/о н/о +28.8 +22.5 69 +38 +38 очень
душно
1006.1 1005.6
18 12.11 В 3 н/о н/о +28.7 +22.9 71 +38 +38 очень
душно
1006.0 1005.5
20 12.11 В 3 н/о н/о +27.8 +23.2 76 +37 +37 очень
душно
1006.7 1006.2
19 12.11 В 4 н/о н/о +28.3 +23.4 75 +38 +38 очень
душно
1006.5 1006.0
21 12.11 В 3 н/о н/о +27.7 +23.3 77 +37 +37 очень
душно
1007.2 1006.7
22 12.11 В 4 н/о н/о +29.5 +24.1 73 +41 +41 опасность
перегрева
1008.0 1007.5
23 12.11 ЮВ 3 н/о н/о +32.6 +23.3 58 +43 +43 опасность
перегрева
1008.3 1007.8
00 13.11 СЗ 3 н/о н/о +34.6 +21.3 46 +42 +42 опасность
перегрева
1008.4 1007.9
02 13.11 ЮЗ 4 н/о н/о +37.4 +19.3 35 +42 +42 опасность
перегрева
1007.2 1006.7
01 13.11 З 4 н/о н/о +36.2 +20.0 39 +42 +42 опасность
перегрева
1008.0 1007.5 +27.8
03 13.11 З 3 н/о н/о +38.9 +19.2 32 +43 +43 опасность
перегрева
1006.3 1005.8
04 13.11 З 4 н/о н/о +40.0 +18.0 28 +43 +43 опасность
перегрева
1005.2 1004.7
05 13.11 СЗ 4 н/о н/о +41.0 +17.1 25 +43 +43 опасность
перегрева
1004.1 1003.6
06 13.11 С 7 н/о н/о +40.8 +21.8 34 +48 +48 опасность
перегрева
1003.2 1002.7
08 13.11 С 9 н/о н/о +36.4 +22.2 44 +45 +45 опасность
перегрева
1003.3 1002.8
07 13.11 С 8 н/о н/о +39.0 +20.7 35 +45 +45 опасность
перегрева
1002.8 1002.3
09 13.11 С 10 н/о н/о +33.2 +20.7 48 +40 +40 очень
душно
1003.6 1003.1
10 13.11 С 10 н/о н/о +31.6 +23.7 63 +43 +43 опасность
перегрева
1005.7 1005.2
11 13.11 СВ 7 н/о н/о +31.3 +23.7 64 +42 +42 опасность
перегрева
1006.8 1006.3
12 13.11 С 4 н/о н/о +31.6 +22.3 58 +41 +41 опасность
перегрева
1006.8 1006.3
14 13.11 С 4 н/о н/о +31.3 +21.8 57 +40 +40 очень
душно
1007.3 1006.8
13 13.11 С 4 н/о н/о +31.5 +21.9 57 +40 +40 очень
душно
1007.1 1006.6 +42.5
15 13.11 СВ 2 н/о н/о +30.9 +21.4 57 +39 +39 очень
душно
1006.9 1006.4
16 13.11 С 2 н/о н/о +30.1 +21.2 59 +38 +38 очень
душно
1006.6 1006.1
17 13.11 С 3 н/о н/о +30.7 +21.2 57 +38 +38 очень
душно
1006.4 1005.9
18 13.11 СВ 2 н/о н/о +29.7 +21.1 60 +37 +37 очень
душно
1006.0 1005.5
20 13.11 В 2 н/о н/о +28.6 +21.1 64 +36 +36 очень
душно
1007.4 1006.9
19 13.11 С 2 н/о н/о +29.3 +21.5 63 +37 +37 очень
душно
1006.3 1005.8
21 13.11 В 2 н/о н/о +28.4 +22.2 69 +37 +37 очень
душно
1008.2 1007.7
22 13.11 СЗ 4 н/о н/о +31.2 +22.2 59 +40 +40 очень
душно
1009.1 1008.6
23 13.11 СЗ 4 н/о н/о +32.5 +21.4 52 +40 +40 очень
душно
1009.3 1008.8
00 14.11 СЗ 4 н/о н/о +34.1 +21.2 47 +42 +42 опасность
перегрева
1009.5 1009.0
02 14.11 С 3 н/о н/о +37.1 +19.5 36 +42 +42 опасность
перегрева
1008.7 1008.2
01 14.11 С 3 н/о н/о +35.8 +21.6 44 +44 +44 опасность
перегрева
1009.3 1008.8 +28.3
03 14.11 С 3 н/о н/о +38.4 +20.2 35 +44 +44 опасность
перегрева
1007.9 1007.4
04 14.11 СВ 4 н/о н/о +39.8 +20.0 32 +45 +45 опасность
перегрева
1006.7 1006.2
05 14.11 С 6 н/о н/о +40.7 +19.7 30 +46 +46 опасность
перегрева
1005.5 1005.0
06 14.11 С 6 н/о н/о +39.6 +19.3 31 +44 +44 опасность
перегрева
1004.8 1004.3
08 14.11 С 10 н/о н/о +33.0 +20.5 48 +40 +40 очень
душно
1005.5 1005.0
07 14.11 С 8 н/о н/о +36.1 +20.4 40 +42 +42 опасность
перегрева
1004.7 1004.2
09 14.11 С 9 н/о н/о +32.2 +22.3 56 +41 +41 опасность
перегрева
1006.6 1006.1
10 14.11 В 9 н/о н/о +29.2 +19.8 57 +35 +35 очень
душно
1010.3 1009.8
11 14.11 СЗ 4 н/о н/о +30.0 +20.5 57 +37 +37 очень
душно
1008.4 1007.9
12 14.11 СЗ 3 н/о н/о +30.2 +22.1 62 +39 +39 очень
душно
1008.9 1008.4
14 14.11 СВ 1 н/о н/о +28.8 +23.0 71 +39 +39 очень
душно
1008.1 1007.6
13 14.11 З 3 н/о н/о +29.5 +22.7 67 +39 +39 очень
душно
1007.8 1007.3 +41.2
15 14.11 ЮВ 2 н/о н/о +28.1 +22.1 70 +37 +37 очень
душно
1008.5 1008.0
16 14.11 В 2 н/о н/о +28.0 +22.5 72 +37 +37 очень
душно
1008.8 1008.3
17 14.11 В 3 н/о н/о +28.3 +23.0 73 +38 +38 очень
душно
1008.9 1008.4
18 14.11 В 4 н/о н/о +28.2 +23.1 74 +38 +38 очень
душно
1008.8 1008.3
20 14.11 В 2 н/о н/о +28.1 +23.0 74 +38 +38 очень
душно
1009.8 1009.3
19 14.11 В 3 н/о н/о +28.1 +23.0 74 +38 +38 очень
душно
1009.5 1009.0
21 14.11 В 3 н/о н/о +27.8 +23.2 76 +37 +37 очень
душно
1010.9 1010.4
22 14.11 В 4 н/о н/о +28.7 +24.0 76 +40 +40 очень
душно
1011.8 1011.3
23 14.11 С 5 н/о н/о +29.9 +23.6 69 +41 +41 опасность
перегрева
1012.7 1012.2
00 15.11 С 5 н/о н/о +32.1 +23.1 59 +42 +42 опасность
перегрева
1012.9 1012.4
02 15.11 С 4 н/о н/о +36.1 +18.2 35 +40 +40 очень
душно
1011.6 1011.1
01 15.11 СЗ 5 н/о н/о +34.7 +22.1 48 +43 +43 опасность
перегрева
1012.4 1011.9 +27.4
03 15.11 СЗ 5 н/о н/о +38.2 +19.6 34 +43 +43 опасность
перегрева
1010.4 1009.9
04 15.11 СЗ 4 н/о н/о +38.9 +19.2 32 +43 +43 опасность
перегрева
1009.4 1008.9
05 15.11 СЗ 3 н/о н/о +39.8 +18.4 29 +43 +43 опасность
перегрева
1008.2 1007.7
06 15.11 З 5 н/о н/о +40.2 +17.6 27 +43 +43 опасность
перегрева
1007.1 1006.6
08 15.11 С 8 н/о н/о +38.3 +18.7 32 +42 +42 опасность
перегрева
1005.9 1005.4
07 15.11 С 6 н/о н/о +40.2 +17.6 27 +43 +43 опасность
перегрева
1006.2 1005.7
09 15.11 С 8 н/о н/о +35.7 +19.6 39 +41 +41 опасность
перегрева
1006.5 1006.0
10 15.11 С 8 н/о н/о +33.3 +21.5 50 +41 +41 опасность
перегрева
1007.2 1006.7
11 15.11 С 5 н/о н/о +32.3 +21.5 53 +40 +40 очень
душно
1008.5 1008.0
12 15.11 В 3 н/о н/о +31.6 +22.3 58 +41 +41 опасность
перегрева
1009.0 1008.5
14 15.11 СВ 6 н/о н/о +30.9 +21.9 59 +40 +40 очень
душно
1010.7 1010.2
13 15.11 СВ 4 н/о н/о +31.2 +22.2 59 +40 +40 очень
душно
1009.9 1009.4 +41.7
15 15.11 С 4 н/о н/о +30.6 +22.7 63 +40 +40 очень
душно
1009.9 1009.4
16 15.11 СЗ 4 н/о н/о +30.4 +22.0 61 +39 +39 очень
душно
1009.4 1008.9
17 15.11 СЗ 3 н/о н/о +30.3 +22.7 64 +40 +40 очень
душно
1008.8 1008.3
18 15.11 штиль 0 н/о н/о +29.8 +21.7 62 +38 +38 очень
душно
1008.8 1008.3
20 15.11 СЗ 3 н/о н/о +30.0 +21.1 59 +38 +38 очень
душно
1009.8 1009.3
19 15.11 С 3 н/о н/о +30.1 +21.7 61 +38 +38 очень
душно
1009.2 1008.7
21 15.11 С 3 н/о н/о +30.1 +21.5 60 +38 +38 очень
душно
1010.6 1010.1
22 15.11 СЗ 6 н/о н/о +31.6 +21.2 54 +39 +39 очень
душно
1011.2 1010.7
23 15.11 З 6 н/о н/о +32.5 +21.0 51 +40 +40 очень
душно
1011.5 1011.0
00 16.11 З 4 н/о н/о +34.4 +20.0 43 +40 +40 очень
душно
1011.5 1011.0
02 16.11 СЗ 3 н/о н/о +37.9 +17.8 31 +41 +41 опасность
перегрева
1010.6 1010.1
01 16.11 СЗ 4 н/о н/о +36.5 +18.6 35 +41 +41 опасность
перегрева
1011.4 1010.9 +29.8
03 16.11 СЗ 4 н/о н/о +37.6 +17.1 30 +40 +40 очень
душно
1009.4 1008.9
04 16.11 СЗ 4 н/о н/о +40.0 +18.0 28 +43 +43 опасность
перегрева
1008.0 1007.5
05 16.11 СЗ 6 н/о н/о +39.8 +17.8 28 +43 +43 опасность
перегрева
1006.6 1006.1
06 16.11 С 6 н/о н/о +39.7 +17.8 28 +43 +43 опасность
перегрева
1005.6 1005.1
08 16.11 С 6 н/о н/о +38.1 +18.5 32 +42 +42 опасность
перегрева
1005.7 1005.2
07 16.11 С 6 н/о н/о +39.4 +18.6 30 +43 +43 опасность
перегрева
1005.1 1004.6
09 16.11 Ю 5 н/о н/о +32.4 +19.6 47 +38 +38 очень
душно
1006.6 1006.1
10 16.11 В 5 н/о н/о +30.3 +20.5 56 +37 +37 очень
душно
1009.1 1008.6
11 16.11 З 4 н/о н/о +28.6 +21.9 67 +37 +37 очень
душно
1010.9 1010.4
12 16.11 СЗ 3 н/о н/о +27.0 +23.3 80 +36 +36 очень
душно
1011.4 1010.9
14 16.11 СЗ 7 н/о н/о +27.8 +22.3 72 +36 +36 очень
душно
1009.3 1008.8
13 16.11 С 5 н/о в посл. час дождь {туман} н/о +27.2 +22.6 76 +36 +36 очень
душно
1010.0 1009.5 +41.5
15 16.11 З 4 н/о н/о +27.4 +22.1 73 +36 +36 очень
душно
1008.7 1008.2
16 16.11 З 6 н/о н/о +27.0 +22.6 77 +36 +36 очень
душно
1008.0 1007.5
17 16.11 ЮВ 2 н/о н/о +27.1 +22.5 76 +36 +36 очень
душно
1007.9 1007.4
18 16.11 ЮВ 3 н/о н/о +27.3 +22.0 73 +35 +35 очень
душно
1008.5 1008.0
20 16.11 СВ 2 н/о н/о +26.1 +21.7 77 +34 +34 очень
душно
1009.2 1008.7
19 16.11 С 2 н/о н/о +26.4 +22.5 79 +35 +35 очень
душно
1008.5 1008.0
21 16.11 штиль 0 н/о н/о +26.7 +23.0 80 +36 +36 очень
душно
1010.8 1010.3
22 16.11 В 1 н/о н/о +28.0 +23.2 75 +38 +38 очень
душно
1011.9 1011.4
23 16.11 СВ 2 н/о н/о +31.2 +21.9 58 +40 +40 очень
душно
1012.2 1011.7
00 17.11 В 5 н/о н/о +32.8 +19.7 46 +39 +39 очень
душно
1011.9 1011.4
02 17.11 В 7 н/о н/о +35.4 +19.3 39 +41 +41 опасность
перегрева
1011.4 1010.9
01 17.11 В 7 н/о н/о +33.6 +20.7 47 +41 +41 опасность
перегрева
1012.1 1011.6 +25.9
03 17.11 СВ 5 н/о н/о +33.8 +20.9 47 +41 +41 опасность
перегрева
1010.4 1009.9
04 17.11 СВ 5 н/о н/о +35.2 +18.7 38 +40 +40 очень
душно
1009.0 1008.5
05 17.11 С 6 н/о н/о +36.8 +21.4 41 +44 +44 опасность
перегрева
1007.7 1007.2
06 17.11 СЗ 6 н/о н/о +37.1 +20.0 37 +43 +43 опасность
перегрева
1006.9 1006.4
08 17.11 СЗ 3 н/о н/о +35.6 +17.8 35 +39 +39 очень
душно
1005.6 1005.1
07 17.11 СЗ 5 н/о н/о +36.6 +18.6 35 +41 +41 опасность
перегрева
1005.9 1005.4
09 17.11 С 6 н/о н/о +34.8 +18.0 37 +39 +39 очень
душно
1005.9 1005.4
10 17.11 С 6 н/о н/о +33.0 +20.9 49 +40 +40 очень
душно
1006.5 1006.0
11 17.11 С 5 н/о н/о +32.5 +21.4 52 +40 +40 очень
душно
1007.7 1007.2
12 17.11 С 5 н/о н/о +32.0 +22.1 56 +41 +41 опасность
перегрева
1008.4 1007.9
14 17.11 З 5 н/о н/о +31.6 +22.0 57 +40 +40 очень
душно
1008.8 1008.3
13 17.11 З 5 н/о н/о +32.1 +21.9 55 +41 +41 опасность
перегрева
1008.6 1008.1 +38.0
15 17.11 З 5 н/о н/о +31.3 +21.5 56 +39 +39 очень
душно
1008.8 1008.3
16 17.11 СЗ 4 н/о н/о +30.5 +20.7 56 +38 +38 очень
душно
1008.8 1008.3
17 17.11 З 5 н/о н/о +30.0 +19.1 52 +35 +35 очень
душно
1008.9 1008.4
18 17.11 З 3 н/о н/о +29.8 +19.8 55 +36 +36 очень
душно
1008.1 1007.6
20 17.11 В 6 н/о н/о +28.4 +19.1 57 +34 +34 очень
душно
1009.1 1008.6
19 17.11 С 2 н/о н/о +28.7 +19.3 57 +34 +34 очень
душно
1008.5 1008.0

 

Местоположение метеостанции Wyndham Aero (Западная Австралия, Австралия): широта -15.50 долгота 128.15 высота над уровнем моря 4 м.

В архиве по умолчанию представлена погода в Wyndham Aero за последнюю неделю. Архивные данные за месяц целиком и за предыдущие месяцы, начиная с января 2011 года, Вы можете получить, выбрав интересующий диапазон дат из раскрывающегося списка и нажав кнопку "Ввод!".


*Определитесь, кто Вы:
робот инопланетянин человек

Внимание! Время в таблицах - всемирное. Для получения местного времени необходимо прибавить поправку, которая в Wyndham Aero равна 8 ч.

Смотрите также архив погоды в соседних городах и на ближайших метеорологических станциях:

Погода в Kununurra (Западная Австралия, Австралия) (68 км)
Погода в Argyle Aero (Западная Австралия, Австралия) (130 км)
Погода в Port Keats Aero (Северная территория, Австралия) (203 км)
Погода в Kalumburu (Западная Австралия, Австралия) (209 км)
Погода в Truscott (Западная Австралия, Австралия) (247 км)
Погода в Troughton Island (Западная Австралия, Австралия) (290 км)
Погода в Manbulloo Csiro (Северная территория, Австралия) (291 км)
Погода в Halls Creek Airport (Западная Австралия, Австралия) (308 км)
Погода в Victoria River Downs (Северная территория, Австралия) (323 км)
Погода в Cape Don Lighthouse (Северная территория, Австралия) (375 км)

Пояснения к столбцам:

Ветер - указаны скорость ветра в м/с - средняя за 10 мин, порывы в срок и между сроками (в фигурных скобках) и направление, откуда дует ветер: С - северный, СВ - северо-восточный, В - восточный, ЮВ - юго-восточный, Ю - южный, ЮЗ - юго-западный, З - западный, СЗ - северо-западный.
Видимость - горизонтальная дальность видимости в метрах или километрах. При видимости от 1 до 10 км при отсутствии осадков обычно наблюдается дымка, при ухудшении видимости до 1 км и менее - туман. В сухую погоду видимость может ухудшаться дымом, пылью или мглою.
Явления - указаны атмосферные явления, наблюдавшиеся в срок или в последний час перед сроком; фигурными скобками обозначены явления, наблюдавшиеся между сроками (за 1-3 часа до срока); квадратными скобками обозначены град или гололедные отложения с указанием их диаметра в мм.
Облачность - указаны через наклонную черту общая и нижняя облачность в баллах и высота нижней границы облаков в метрах; квадратными скобками обозначены формы облаков: Ci - перистые, Cs - перисто-слоистые, Cc - перисто-кучевые, Ac - высококучевые, As - высокослоистые, Sc - слоисто-кучевые, Ns - слоисто-дождевые, Cu - кучевые, Cb - кучево-дождевые. Подробнее классификацию облаков см. в Атласе облаков (PDF).
T - Температура воздуха - температура, измеренная на высоте 2 м над землей.
Td - Температура точки росы - температура, при понижении до которой содержащийся в воздухе водяной пар достигнет насыщения.
f - Относительная влажность воздуха - влажноcть воздуха, измеренная на высоте 2 м над землей.
Te - Эффективная температура - температура, которую ощущает одетый по сезону человек в тени. Характеристика душности погоды. При расчете учитывается влияние влажности воздуха и скорости ветра на теплоощущения человека.
Tes - Эффективная температура на солнце - температура, которую ощущает человек, с поправкой на солнечный нагрев. Характеристика знойности погоды. Зависит от высоты солнца над горизонтом, облачности и скорости ветра. Ночью, в пасмурную погоду, а также при ветре 12 м/с и более поправка равна нулю.
P - Атмосферное давление - приведенное к уровню моря атмосферное давление.
Po - Атмосферное давление - измеренное на уровне метеостанции атмосферное давление.
Tmin - Минимальная температура - минимум температуры воздуха на высоте 2 м над землей.
Tmax - Максимальная температура - максимум температуры воздуха на высоте 2 м над землей.
R - Количество осадков - Количество выпавших осадков за период времени, мм. При наведении курсора мыши на число - период времени, за который выпало указанное количество осадков.
R24 - Количество осадков - Количество выпавших осадков за 24 часа, мм.
S - Снежный покров - Высота снежного покрова, см. При наведении курсора мыши на число - состояние снежного покрова и степень покрытия местности в баллах.